Regional Weather Roundup
Issued by NWS

Home | Current Version | Previous Version | Text Only | Print | Product List | Glossary On
Versions: 1 2 3 4 5 6 7 8 9 10 11 12 13 14 15 16 17 18 19 20 21 22 23 24 25 26 27 28 29 30 31 32 33 34 35 36 37 38 39 40 41 42 43 44 45 46 47 48 49 50
000
ASHW40 PHFO 310543
RWRHI

WEATHER ROUNDUP FOR HAWAII
NATIONAL WEATHER SERVICE HONOLULU HI
700 PM HST WED JUL 30 2014

THIS IS AN AUTOMATED REPORT THAT HAS NOT BEEN QUALITY CONTROLLED.

NOTE..."FAIR" INDICATES FEW OR NO CLOUDS BELOW 12,000 FEET WITH NO
SIGNIFICANT WEATHER AND/OR OBSTRUCTIONS TO VISIBILITY.

* - THESE SITES REPORT LIMITED FIELDS

HIZ001>004-310600-
KAUAI-NIIHAU-

CITY           SKY/WX    TMP DP  RH WIND       PRES   REMARKS
LIHUE APT      PTCLDY    78  67  68 NE12      30.03R
PORT ALLEN*      N/A     81 N/A N/A E14G22      N/A
POIPU*           N/A     79 N/A N/A NE8G15      N/A
PRINCEVILLE*   NOT AVBL
KOKOLE POINT*  NOT AVBL
MOLOAA DAIRY*  NOT AVBL
WAIMEA HTS*      N/A     79  66  65 SW6         N/A
PUU OPAE*        N/A     72  63  73 CALM        N/A
PUU LUA*       NOT AVBL
MAKAHA RIDGE*  NOT AVBL
$$

HIZ005>011-310600-
OAHU-

CITY           SKY/WX    TMP DP  RH WIND       PRES   REMARKS
HONOLULU       PTCLDY    81  63  54 NE14      30.00R
KALAELOA       CLEAR     80  63  55 E7        30.00R
KANEOHE MCB    PTCLDY    81  64  57 E10G17    30.01R
WHEELER FIELD  FAIR      77  65  65 NE8       30.02R
BELLOWS*         N/A    N/A N/A N/A NE16        N/A
KAHUKU*          N/A    N/A N/A N/A NE7G16      N/A
WHEELER*       NOT AVBL
WAIANAE HARBOR NOT AVBL
DILLINGHAM*      N/A     81  64  57 NE9G18      N/A
KAHUKU TRN*      N/A     75  68  78 E8G16       N/A
KAWAILOA*      NOT AVBL
KII*             N/A     79  70  73 CALM        N/A
MAKUA RANGE*     N/A     81  63  54 E7G20       N/A
OAHU FOREST NW   N/A     66  66 100 NE16G28     N/A
SCHOFIELD BRK*   N/A     73  63  68 MISG        N/A
SCHOFIELD S*   NOT AVBL
WAIANAE VLY*     N/A    N/A N/A N/A VRB7G18     N/A
KUAOKALA*        N/A     73  63  68 CALM        N/A
HONOULIUULI*   NOT AVBL
MOKUOLOE IS*     N/A    N/A N/A N/A MISG        N/A
PALEHUA*         N/A     81  64  57 CALM        N/A
WAIAWA PHB*    NOT AVBL
$$

HIZ012>013-310600-
MOLOKAI-

CITY           SKY/WX    TMP DP  RH WIND       PRES   REMARKS
MOLOKAI AIRPT  CLEAR     76  69  79 NE15G23   30.00R
KALAUPAPA      NOT AVBL
MAKAPULAPAI*     N/A     79  66  65 E16G23      N/A
MOLOKAI 1*       N/A     66  57  72 NE8G21      N/A
PUU ALII*        N/A     63  59  86 E2G12       N/A
$$

HIZ016-310600-
KAHOOLAWE-

CITY           SKY/WX    TMP DP  RH WIND       PRES   REMARKS
KAHOOLAWE*       N/A     72 N/A N/A E16G24      N/A
HAKIOAWA*        N/A     75  65  71 MISG      30.12
HONOKANAIA*      N/A     80  67  63 NE15G26   29.99R
KANELOA*         N/A     77  66  69 E17G30    30.09R
KEALIALALO*      N/A    N/A N/A N/A E15G31      N/A
LUA MAKIKA*    NOT AVBL
$$

HIZ014>015-310600-
LANAI-

CITY           SKY/WX    TMP DP  RH WIND       PRES   REMARKS
LANAI CITY     FAIR      74  64  70 NE14G26   30.04R
LANAI 1*         N/A     72  70  94 NE17G31     N/A
$$

HIZ017>028-310600-
MAUI-

CITY           SKY/WX    TMP DP  RH WIND       PRES   REMARKS
KAHULUI        PTCLDY    79  65  62 NE21G28   29.97R
KAPALUA-W MAUI NOT AVBL
HANA AIRPORT   CLOUDY    75  66  73 CALM      30.06R
HANA*            N/A     79 N/A N/A E6G12       N/A
HALEAKALA SUMM   N/A     48  18  29 NW7         N/A
MAALAEA BAY*   NOT AVBL
HALEAKALA*     NOT AVBL
KAUPO GAP*       N/A     63  63 100 CALM        N/A
KULA 1*          N/A     61  47  59 CALM        N/A
$$

HIZ023>026-310600-
BIG ISLAND OF HAWAII COAST AND LOWER SLOPES-

CITY           SKY/WX    TMP DP  RH WIND       PRES   REMARKS
KAILUA KONA    CLEAR     82  70  66 SW14      29.96R
HILO           CLOUDY    78  68  71 VRB3      30.01R
HONOKAA*       NOT AVBL
KAWAIHAE MWT*    N/A     82 N/A N/A SW9         N/A
KAWAIHAE*        N/A     81 N/A N/A SW7         N/A
SOUTH POINT*     N/A     73 N/A N/A E17G24      N/A
UPOLU AIRPORT*   N/A    N/A N/A N/A E14G20      N/A
KAMUELA*       CLEAR     64  61  88 NE12      30.12R
HAKALAU*         N/A     54  54  99 SE1         N/A
KALOKO-HONOKO*   N/A     81  70  69 SW7       29.96R
PALI 2*          N/A     66  57  72 N13G24      N/A
KEALAKOMO*       N/A     82  64  54 NE15G21     N/A
KAUPULEHU*       N/A     75  64  69 SW10G20     N/A
KAPAPALA*        N/A     71  65  82 SW3         N/A
LOWER KAHUKU*  NOT AVBL
PUHE CS*       NOT AVBL
PUHO CS*         N/A     81  67  62 W3          N/A
PTA KEAMUKU*     N/A     64  59  82 NE10G18     N/A
WAIKOLOA*        N/A     75  59  57 NE12G18     N/A
$$

HIZ027>028-310600-
BIG ISLAND OF HAWAII INTERIOR AND SUMMMITS-

CITY           SKY/WX    TMP DP  RH WIND       PRES   REMARKS
BRADSHAW FIELD PTCLDY    59  54  82 W6        30.34R
MK VISITOR CEN NOT AVBL
MAUNA KEA*       N/A     39  28  65 CALM        N/A
MAUNA LOA*       N/A     46  43  87 MISG        N/A
MAUNA LOA 1*     N/A     48  45  87 MISG        N/A
PTA KIPUKA*      N/A     63  55  77 NW5G12      N/A
PTA RANGE 17*    N/A     61  54  77 W7G13       N/A
PTA WEST*        N/A     64  55  72 VRB7        N/A
NENE CABIN*    NOT AVBL
AHUMOA*          N/A     52  49  91 S1          N/A
PTA PORTABLE*  NOT AVBL
PUU MALI*      NOT AVBL
$$

HIC003-310600-
NORTHWEST ISLANDS-

CITY           SKY/WX    TMP DP  RH WIND       PRES   REMARKS
MIDWAY ISLAND  MOSUNNY   86  75  70 W6        30.03R HX  95
MIDWAY NOS*    NOT AVBL
FRENCH FRIGATE NOT AVBL
$$

PHZ110>124-180-310600-
BUOY REPORTS

STATION/POSITION TIME  TEMP    WIND        PRES    WAVE   SWELL
                       AIR SEA DIR/SP/G            HT/PER HT/DIR
                 (UTC) (F)     (DEG/KT/KT) (MB)    (FT/S) (FT/D)
BUOY 51001       NOT AVBL
BUOY 51101       NOT AVBL
BUOY 51100       0500   77 78   80/ 12/ 14 1017.2R
BUOY 51003       0500   81 82   70/ 14/ 16 1014.6R   7/ 9   5
BUOY 51004       0405   79 80   50/ 17/ 23 1013.3R   8/ 8   3/160
BARBERS PT BUOY  NOT AVBL
WAIMEA BAY BUOY  0500      80                N/A     3/ 5
KAILUA BAY BUOY  0500      80                N/A     5/ 8   2/ 80
LANAI BUOY       0500      81                N/A     3/13   2/190
BARBERS PT 2     0500      81                N/A     4/14   2/190
PAUWELA MAUI     0500      79                N/A     5/11   2/100
HILO             NOT AVBL
KANEOHE BAY BUOY 0500      79                N/A     4/ 8
HANALEI KAUAI    NOT AVBL
KAHULUI HARBOR   0500   78 81   30/ 16/ 20 1015.7R
HONOLULU HARBOR  0500   80      50/  6/ 10 1016.3R
KILO NALU        NOT AVBL
HILO HARBOR      0500   76     250/  5/  5 1016.0R
MOKUOLOE         0500      83              1016.8R
NAWILIWILI       0500      82                N/A
WHOTS BUOY       NOT AVBL
BUOY 51028       NOT AVBL
$$

......................KEY........................................
  SKY/WX - SKY CONDITIONS/PRESENT WEATHER
  TMP    - TEMPERATURE IN FAHRENHEIT
  DWPT   - DEWPOINT IN FAHRENHEIT
  RH     - RELATIVE HUMIDITY IN PERCENT
  WIND   - DIRECTION AND SPEED /MPH FOR ISLANDS...KTS FOR BUOYS/
  PRES   - MEAN SEA LEVEL PRESSURE IN INCHES OF HG
  VSB    - VISIBILITY IN MILES
  HX     - HEAT INDEX
  WCI    - WIND CHILL INDEX
  VRB    - VARIABLE WIND DIRECTION
  N/A    - NOT AVAILABLE



USA.gov is the U.S. government's official web portal to all federal, state and local government web resources and services.